{"data":{"norad_id":26715,"epoch":"2026-05-24T18:28:33.909024Z","epoch_age_seconds":109121,"freshness":"FRESH","line1":"1 26715U 01009A   26144.76983691  .00000102  00000+0  00000+0 0  9998","line2":"2 26715  11.5184  19.9158 0038130 178.9244 170.6857  1.00277917 32706","mean_motion":1.00277917,"eccentricity":0.003813,"inclination_deg":11.5184,"raan_deg":19.9158,"arg_perigee_deg":178.9244,"mean_anomaly_deg":170.6857,"bstar":0,"rev_number":3270,"period_min":1436.0090866267,"perigee_km":35624.108457921,"apogee_km":35945.643595262,"semimajor_km":42163.013026592,"source":"CELESTRAK","updated_at":"2026-05-25T13:38:13.811884Z"}}